Time,TemperatureF,DewpointF,PressureIn,WindDirection,WindDirectionDegrees,WindSpeedMPH,WindSpeedGustMPH,Humidity,HourlyPrecipIn,Conditions,Clouds,dailyrainin,SolarRadiationWatts/m^2,SoftwareType,DateUTC
2013-05-21 00:52:00,51.0,29.0,-100.00,SSW,202,5.0,9.0,43,0.00,,,0.00,0.000000,,2013-05-21 07:52:00,
2013-05-21 01:01:00,51.0,29.0,-100.00,SSW,202,5.0,9.0,43,0.00,,,0.00,0.000000,,2013-05-21 08:01:00,
2013-05-21 01:31:00,51.0,33.0,-100.00,SSW,208,5.0,11.0,49,0.00,,,0.00,0.000000,,2013-05-21 08:31:00,
2013-05-21 01:52:00,51.0,33.0,-100.00,SSW,208,5.0,11.0,49,0.00,,,0.00,0.000000,,2013-05-21 08:52:00,
2013-05-21 02:01:00,51.0,33.0,-100.00,SSW,208,5.0,11.0,49,0.00,,,0.00,0.000000,,2013-05-21 09:01:00,
2013-05-21 02:11:00,51.0,33.0,-100.00,SSW,208,5.0,11.0,49,0.00,,,0.00,0.000000,,2013-05-21 09:11:00,
2013-05-21 02:21:00,51.0,33.0,-100.00,SSW,208,5.0,11.0,49,0.00,,,0.00,0.000000,,2013-05-21 09:21:00,
2013-05-21 02:31:00,51.0,34.0,-100.00,SSW,202,7.0,13.0,53,0.00,,,0.00,0.000000,,2013-05-21 09:31:00,
2013-05-21 02:53:00,51.0,34.0,-100.00,SSW,202,7.0,13.0,53,0.00,,,0.00,0.000000,,2013-05-21 09:53:00,
2013-05-21 03:02:00,51.0,34.0,-100.00,SSW,202,7.0,13.0,53,0.00,,,0.00,0.000000,,2013-05-21 10:02:00,
2013-05-21 03:12:00,51.0,34.0,-100.00,SSW,202,7.0,13.0,53,0.00,,,0.00,0.000000,,2013-05-21 10:12:00,
2013-05-21 03:22:00,51.0,34.0,-100.00,SSW,202,7.0,13.0,53,0.00,,,0.00,0.000000,,2013-05-21 10:22:00,
2013-05-21 03:31:00,50.0,37.0,-100.00,SSW,210,6.0,12.0,61,0.00,,,0.00,0.000000,,2013-05-21 10:31:00,
2013-05-21 03:52:00,50.0,37.0,-100.00,SSW,210,6.0,12.0,61,0.00,,,0.00,0.000000,,2013-05-21 10:52:00,
2013-05-21 04:02:00,50.0,37.0,-100.00,SSW,210,6.0,12.0,61,0.00,,,0.00,0.000000,,2013-05-21 11:02:00,
2013-05-21 04:11:00,50.0,37.0,-100.00,SSW,210,6.0,12.0,61,0.00,,,0.00,0.000000,,2013-05-21 11:11:00,
2013-05-21 04:21:00,50.0,37.0,-100.00,SSW,210,6.0,12.0,61,0.00,,,0.00,0.000000,,2013-05-21 11:21:00,
2013-05-21 04:31:00,47.0,37.0,-100.00,SSW,212,5.0,14.0,68,0.01,,,0.01,0.000000,,2013-05-21 11:31:00,
2013-05-21 04:52:00,47.0,37.0,-100.00,SSW,212,5.0,14.0,68,0.01,,,0.01,0.000000,,2013-05-21 11:52:00,
2013-05-21 05:01:00,47.0,37.0,-100.00,SSW,212,5.0,14.0,68,0.01,,,0.01,0.000000,,2013-05-21 12:01:00,
2013-05-21 05:11:00,47.0,37.0,-100.00,SSW,212,5.0,14.0,68,0.01,,,0.01,0.000000,,2013-05-21 12:11:00,
2013-05-21 05:21:00,47.0,37.0,-100.00,SSW,212,5.0,14.0,68,0.01,,,0.01,0.000000,,2013-05-21 12:21:00,
2013-05-21 05:31:00,45.0,39.0,-100.00,SSW,209,5.0,14.0,79,0.00,,,0.01,0.000000,,2013-05-21 12:31:00,
2013-05-21 05:52:00,45.0,39.0,-100.00,SSW,209,5.0,14.0,79,0.00,,,0.01,0.000000,,2013-05-21 12:52:00,
2013-05-21 06:01:00,45.0,39.0,-100.00,SSW,209,5.0,14.0,79,0.00,,,0.01,0.000000,,2013-05-21 13:01:00,
2013-05-21 06:11:00,45.0,39.0,-100.00,SSW,209,5.0,14.0,79,0.00,,,0.01,0.000000,,2013-05-21 13:11:00,
2013-05-21 06:22:00,45.0,39.0,-100.00,SSW,209,5.0,14.0,79,0.00,,,0.01,0.000000,,2013-05-21 13:22:00,
2013-05-21 06:31:00,44.0,38.0,-100.00,SSW,202,6.0,11.0,80,0.00,,,0.01,9.000000,,2013-05-21 13:31:00,
2013-05-21 06:52:00,44.0,38.0,-100.00,SSW,202,6.0,11.0,80,0.00,,,0.01,9.000000,,2013-05-21 13:52:00,
2013-05-21 07:01:00,44.0,38.0,-100.00,SSW,202,6.0,11.0,80,0.00,,,0.01,9.000000,,2013-05-21 14:01:00,
2013-05-21 07:11:00,44.0,38.0,-100.00,SSW,202,6.0,11.0,80,0.00,,,0.01,9.000000,,2013-05-21 14:11:00,
2013-05-21 07:21:00,44.0,38.0,-100.00,SSW,202,6.0,11.0,80,0.00,,,0.01,9.000000,,2013-05-21 14:21:00,
2013-05-21 07:31:00,42.0,35.0,-100.00,SW,223,4.0,14.0,77,0.00,,,0.01,39.000000,,2013-05-21 14:31:00,
2013-05-21 07:52:00,42.0,35.0,-100.00,SW,223,4.0,14.0,77,0.00,,,0.01,39.000000,,2013-05-21 14:52:00,
2013-05-21 08:01:00,42.0,35.0,-100.00,SW,223,4.0,14.0,77,0.00,,,0.01,39.000000,,2013-05-21 15:01:00,
2013-05-21 08:11:00,42.0,35.0,-100.00,SW,223,4.0,14.0,77,0.00,,,0.01,39.000000,,2013-05-21 15:11:00,
2013-05-21 08:21:00,42.0,35.0,-100.00,SW,223,4.0,14.0,77,0.00,,,0.01,39.000000,,2013-05-21 15:21:00,
2013-05-21 08:53:00,49.0,35.0,-100.00,SW,216,6.0,17.0,58,0.00,,,0.01,398.000000,,2013-05-21 15:53:00,
2013-05-21 09:02:00,49.0,35.0,-100.00,SW,216,6.0,17.0,58,0.00,,,0.01,398.000000,,2013-05-21 16:02:00,
2013-05-21 09:31:00,47.0,31.0,-100.00,SW,215,7.0,16.0,54,-99.99,,,0.02,390.000000,,2013-05-21 16:31:00,
2013-05-21 09:53:00,47.0,31.0,-100.00,SW,215,7.0,16.0,54,-99.99,,,0.02,390.000000,,2013-05-21 16:53:00,
2013-05-21 10:02:00,47.0,31.0,-100.00,SW,215,7.0,16.0,54,-99.99,,,0.02,390.000000,,2013-05-21 17:02:00,
2013-05-21 10:12:00,47.0,31.0,-100.00,SW,215,7.0,16.0,54,-99.99,,,0.02,390.000000,,2013-05-21 17:12:00,
2013-05-21 10:22:00,47.0,31.0,-100.00,SW,215,7.0,16.0,54,-99.99,,,0.02,390.000000,,2013-05-21 17:22:00,
2013-05-21 10:31:00,47.0,36.0,-100.00,SW,227,9.0,17.0,65,0.00,,,-99.99,490.000000,,2013-05-21 17:31:00,
2013-05-21 10:52:00,47.0,36.0,-100.00,SW,227,9.0,17.0,65,0.00,,,-99.99,490.000000,,2013-05-21 17:52:00,
2013-05-21 11:01:00,47.0,36.0,-100.00,SW,227,9.0,17.0,65,0.00,,,-99.99,490.000000,,2013-05-21 18:01:00,
2013-05-21 11:11:00,47.0,36.0,-100.00,SW,227,9.0,17.0,65,0.00,,,-99.99,490.000000,,2013-05-21 18:11:00,
2013-05-21 11:22:00,47.0,36.0,-100.00,SW,227,9.0,17.0,65,0.00,,,-99.99,490.000000,,2013-05-21 18:22:00,
2013-05-21 11:31:00,49.0,32.0,-100.00,SW,233,9.0,21.0,51,0.00,,,0.02,902.000000,,2013-05-21 18:31:00,
2013-05-21 11:52:00,49.0,32.0,-100.00,SW,233,9.0,21.0,51,0.00,,,0.02,902.000000,,2013-05-21 18:52:00,
2013-05-21 12:01:00,49.0,32.0,-100.00,SW,233,9.0,21.0,51,0.00,,,0.02,902.000000,,2013-05-21 19:01:00,
2013-05-21 12:11:00,49.0,32.0,-100.00,SW,233,9.0,21.0,51,0.00,,,0.02,902.000000,,2013-05-21 19:11:00,
2013-05-21 12:21:00,49.0,32.0,-100.00,SW,233,9.0,21.0,51,0.00,,,0.02,902.000000,,2013-05-21 19:21:00,
2013-05-21 12:31:00,51.0,33.0,-100.00,WSW,250,9.0,21.0,49,0.00,,,0.02,900.000000,,2013-05-21 19:31:00,
2013-05-21 12:52:00,51.0,33.0,-100.00,WSW,250,9.0,21.0,49,0.00,,,0.02,900.000000,,2013-05-21 19:52:00,
2013-05-21 13:03:00,51.0,33.0,-100.00,WSW,250,9.0,21.0,49,0.00,,,0.02,900.000000,,2013-05-21 20:03:00,
2013-05-21 13:11:00,51.0,33.0,-100.00,WSW,250,9.0,21.0,49,0.00,,,0.02,900.000000,,2013-05-21 20:11:00,
2013-05-21 13:22:00,51.0,33.0,-100.00,WSW,250,9.0,21.0,49,0.00,,,0.02,900.000000,,2013-05-21 20:22:00,
2013-05-21 13:31:00,51.0,33.0,-100.00,WSW,241,9.0,17.0,49,0.00,,,0.02,818.000000,,2013-05-21 20:31:00,
2013-05-21 13:52:00,51.0,33.0,-100.00,WSW,241,9.0,17.0,49,0.00,,,0.02,818.000000,,2013-05-21 20:52:00,
2013-05-21 14:02:00,51.0,33.0,-100.00,WSW,241,9.0,17.0,49,0.00,,,0.02,818.000000,,2013-05-21 21:02:00,
2013-05-21 14:11:00,51.0,33.0,-100.00,WSW,241,9.0,17.0,49,0.00,,,0.02,818.000000,,2013-05-21 21:11:00,
2013-05-21 14:21:00,51.0,33.0,-100.00,WSW,241,9.0,17.0,49,0.00,,,0.02,818.000000,,2013-05-21 21:21:00,
2013-05-21 14:31:00,52.0,36.0,-100.00,WSW,256,8.0,17.0,54,0.00,,,0.02,813.000000,,2013-05-21 21:31:00,
2013-05-21 14:54:00,52.0,36.0,-100.00,WSW,256,8.0,17.0,54,0.00,,,0.02,813.000000,,2013-05-21 21:54:00,
2013-05-21 15:02:00,52.0,36.0,-100.00,WSW,256,8.0,17.0,54,0.00,,,0.02,813.000000,,2013-05-21 22:02:00,
2013-05-21 15:12:00,52.0,36.0,-100.00,WSW,256,8.0,17.0,54,0.00,,,0.02,813.000000,,2013-05-21 22:12:00,
2013-05-21 15:22:00,52.0,36.0,-100.00,WSW,256,8.0,17.0,54,0.00,,,0.02,813.000000,,2013-05-21 22:22:00,
2013-05-21 15:31:00,45.0,32.0,-100.00,SW,223,7.0,20.0,61,0.00,,,0.02,347.000000,,2013-05-21 22:31:00,
2013-05-21 15:53:00,45.0,32.0,-100.00,SW,223,7.0,20.0,61,0.00,,,0.02,347.000000,,2013-05-21 22:53:00,
2013-05-21 16:02:00,45.0,32.0,-100.00,SW,223,7.0,20.0,61,0.00,,,0.02,347.000000,,2013-05-21 23:02:00,
2013-05-21 16:12:00,45.0,32.0,-100.00,SW,223,7.0,20.0,61,0.00,,,0.02,347.000000,,2013-05-21 23:12:00,
2013-05-21 16:22:00,45.0,32.0,-100.00,SW,223,7.0,20.0,61,0.00,,,0.02,347.000000,,2013-05-21 23:22:00,
2013-05-21 16:31:00,43.0,32.0,-100.00,SW,214,9.0,20.0,65,0.00,,,0.02,501.000000,,2013-05-21 23:31:00,
2013-05-21 16:52:00,43.0,32.0,-100.00,SW,214,9.0,20.0,65,0.00,,,0.02,501.000000,,2013-05-21 23:52:00,
2013-05-21 17:01:00,43.0,32.0,-100.00,SW,214,9.0,20.0,65,0.00,,,0.02,501.000000,,2013-05-22 00:01:00,
2013-05-21 17:11:00,43.0,32.0,-100.00,SW,214,9.0,20.0,65,0.00,,,0.02,501.000000,,2013-05-22 00:11:00,
2013-05-21 17:21:00,43.0,32.0,-100.00,SW,214,9.0,20.0,65,0.00,,,0.02,501.000000,,2013-05-22 00:21:00,
2013-05-21 17:31:00,42.0,30.0,-100.00,SSW,209,7.0,21.0,61,0.00,,,0.02,506.000000,,2013-05-22 00:31:00,
2013-05-21 17:52:00,42.0,30.0,-100.00,SSW,209,7.0,21.0,61,0.00,,,0.02,506.000000,,2013-05-22 00:52:00,
2013-05-21 18:01:00,42.0,30.0,-100.00,SSW,209,7.0,21.0,61,0.00,,,0.02,506.000000,,2013-05-22 01:01:00,
2013-05-21 18:11:00,42.0,30.0,-100.00,SSW,209,7.0,21.0,61,0.00,,,0.02,506.000000,,2013-05-22 01:11:00,
2013-05-21 18:21:00,42.0,30.0,-100.00,SSW,209,7.0,21.0,61,0.00,,,0.02,506.000000,,2013-05-22 01:21:00,
2013-05-21 18:31:00,40.0,27.0,-100.00,SW,220,7.0,21.0,59,0.00,,,0.02,171.000000,,2013-05-22 01:31:00,
2013-05-21 18:52:00,40.0,27.0,-100.00,SW,220,7.0,21.0,59,0.00,,,0.02,171.000000,,2013-05-22 01:52:00,
2013-05-21 19:01:00,40.0,27.0,-100.00,SW,220,7.0,21.0,59,0.00,,,0.02,171.000000,,2013-05-22 02:01:00,
2013-05-21 19:11:00,40.0,27.0,-100.00,SW,220,7.0,21.0,59,0.00,,,0.02,171.000000,,2013-05-22 02:11:00,
2013-05-21 19:21:00,40.0,27.0,-100.00,SW,220,7.0,21.0,59,0.00,,,0.02,171.000000,,2013-05-22 02:21:00,
2013-05-21 19:31:00,36.0,25.0,-100.00,SSW,206,8.0,17.0,65,0.00,,,0.02,40.000000,,2013-05-22 02:31:00,
2013-05-21 19:52:00,36.0,25.0,-100.00,SSW,206,8.0,17.0,65,0.00,,,0.02,40.000000,,2013-05-22 02:52:00,
2013-05-21 20:01:00,36.0,25.0,-100.00,SSW,206,8.0,17.0,65,0.00,,,0.02,40.000000,,2013-05-22 03:01:00,
2013-05-21 20:11:00,36.0,25.0,-100.00,SSW,206,8.0,17.0,65,0.00,,,0.02,40.000000,,2013-05-22 03:11:00,
2013-05-21 20:21:00,36.0,25.0,-100.00,SSW,206,8.0,17.0,65,0.00,,,0.02,40.000000,,2013-05-22 03:21:00,
2013-05-21 20:31:00,33.0,30.0,-100.00,SW,222,5.0,16.0,89,0.01,,,0.03,9.000000,,2013-05-22 03:31:00,
2013-05-21 20:53:00,33.0,30.0,-100.00,SW,222,5.0,16.0,89,0.01,,,0.03,9.000000,,2013-05-22 03:53:00,
2013-05-21 21:03:00,33.0,30.0,-100.00,SW,222,5.0,16.0,89,0.01,,,0.03,9.000000,,2013-05-22 04:03:00,
2013-05-21 21:12:00,33.0,30.0,-100.00,SW,222,5.0,16.0,89,0.01,,,0.03,9.000000,,2013-05-22 04:12:00,
2013-05-21 21:22:00,33.0,30.0,-100.00,SW,222,5.0,16.0,89,0.01,,,0.03,9.000000,,2013-05-22 04:22:00,
2013-05-21 21:31:00,33.0,26.0,-100.00,SW,225,5.0,15.0,76,0.00,,,0.03,0.000000,,2013-05-22 04:31:00,
2013-05-21 21:53:00,33.0,26.0,-100.00,SW,225,5.0,15.0,76,0.00,,,0.03,0.000000,,2013-05-22 04:53:00,
2013-05-21 22:02:00,33.0,26.0,-100.00,SW,225,5.0,15.0,76,0.00,,,0.03,0.000000,,2013-05-22 05:02:00,
2013-05-21 22:11:00,33.0,26.0,-100.00,SW,225,5.0,15.0,76,0.00,,,0.03,0.000000,,2013-05-22 05:11:00,
2013-05-21 22:21:00,33.0,26.0,-100.00,SW,225,5.0,15.0,76,0.00,,,0.03,0.000000,,2013-05-22 05:21:00,
2013-05-21 22:31:00,33.0,25.0,-100.00,SSW,213,6.0,15.0,72,0.00,,,0.03,0.000000,,2013-05-22 05:31:00,
2013-05-21 22:52:00,33.0,25.0,-100.00,SSW,213,6.0,15.0,72,0.00,,,0.03,0.000000,,2013-05-22 05:52:00,
2013-05-21 23:01:00,33.0,25.0,-100.00,SSW,213,6.0,15.0,72,0.00,,,0.03,0.000000,,2013-05-22 06:01:00,
2013-05-21 23:11:00,33.0,25.0,-100.00,SSW,213,6.0,15.0,72,0.00,,,0.03,0.000000,,2013-05-22 06:11:00,
2013-05-21 23:21:00,33.0,25.0,-100.00,SSW,213,6.0,15.0,72,0.00,,,0.03,0.000000,,2013-05-22 06:21:00,
2013-05-21 23:31:00,33.0,23.0,-100.00,SSW,205,5.0,20.0,67,0.00,,,0.03,0.000000,,2013-05-22 06:31:00,
2013-05-21 23:52:00,33.0,23.0,-100.00,SSW,205,5.0,20.0,67,0.00,,,0.03,0.000000,,2013-05-22 06:52:00,